[[{"header":{"parameterUnit":"m.s-1","parameterCategory":1,"la1":30.2991,"la2":30.254,"lo1":-89.0895,"lo2":-89.0444,"dy":0.0017,"dx":0.0017,"nx":28,"ny":28,"refTime":"2023-08-19T03:00:00:Z","depth":0,"parameterNumber":2,"parameterNumberName":"U-component_of_WINDS"},"data":[0,0,0,0,0,0,0,0,0,0,0,0,0,0,0,0,0,0,0,0,0,0,0,0,0,0,0,0,0,0,0,0,0,0,0,0,0,0,0,0,0,0,0,0,0,0,0,0,0,0,0,0,0,0,0,0,0,0,0.1198,0.1198,0,0.1198,0.1198,0.1198,0.1154,0.1153,0.1152,0.1151,0.1154,0.1155,0.1156,0,0,0,0,0,0,0,0,0,0,0,0,0,0.1161,0.1162,0.1198,0.1198,0.1198,0.1198,0.1198,0.1198,0.1155,0.1153,0.1152,0.1151,0.1154,0.1155,0.1156,0,0,0,0,0,0,0,0,0,0,0,0,0,0.1171,0.1162,0.1198,0.1176,0.1174,0.1198,0.1198,0.1198,0.1155,0.1153,0.1151,0.115,0.1153,0.1155,0.1157,0.1202,0,0,0.1162,0.1163,0,0,0,0,0,0,0,0,0.117,0.1172,0.1179,0.1178,0.1175,0.1174,0.1186,0.1199,0.1155,0.1162,0.1151,0.1149,0.1162,0.1163,0.1167,0.1202,0.1202,0.1162,0.1163,0.1164,0.1164,0,0,0,0,0,0,0,0.117,0.1172,0.1198,0.1179,0.1177,0.1167,0.1166,0.1188,0.1172,0.1162,0.1158,0.1159,0.1161,0.1166,0.1167,0.1202,0.1162,0.1163,0.1164,0.1165,0.1272,0.1274,0,0,0,0,0,0,0.1172,0.1172,0.1198,0.1198,0.1168,0.1169,0.1168,0.1176,0.1172,0.1169,0.116,0.1157,0.1163,0.1165,0.1167,0.1218,0.1164,0.1165,0.1166,0.127,0.1272,0.1274,0,0,0,0,0,0,0.1171,0.1174,0.1198,0.1184,0.1186,0.1171,0.1181,0.1177,0.1182,0.1171,0.1168,0.1168,0.1162,0.1164,0.1193,0.1218,0.1166,0.1168,0.1268,0.1271,0.1273,0.1322,0,0,0,0,0,0,0.117,0.1174,0.1191,0.1184,0.1187,0.1224,0.1182,0.1179,0.1185,0.118,0.1177,0.1175,0.1161,0.119,0.1194,0.1219,0.1169,0.1266,0.1269,0.1272,0.1318,0.1326,0.1333,0,0,0,0,0,0.1169,0.1206,0.1192,0.1196,0.1208,0.1225,0.1226,0.1209,0.1187,0.1204,0.1196,0.1175,0.1214,0.1194,0.1198,0.1224,0.1264,0.1268,0.1272,0.1315,0.1325,0.1333,0,0,0,0,0,0,0.1218,0.1205,0.119,0.1225,0.1226,0.1218,0.1239,0.122,0.1228,0.1224,0.1202,0.1202,0.1233,0.1231,0.1209,0.1266,0.1235,0.124,0.1267,0.1276,0.1283,0.1283,0.117,0,0,0,0,0,0.1233,0.1247,0.1235,0.1268,0.1269,0.1254,0.1261,0.1247,0.1248,0.1248,0.1243,0.1245,0.1257,0.1266,0.1277,0.1317,0.1316,0.1337,0.1345,0.1351,0.1356,0.1376,0.1385,0.1287,0.1287,0.1287,0,0,0.1264,0.1258,0.1269,0.1278,0.1277,0.1293,0.1255,0.1274,0.1285,0.1251,0.1277,0.1273,0.1274,0.1308,0.1323,0.1307,0.1382,0.1356,0.1361,0.1362,0.1381,0.139,0.1398,0.129,0.129,0.1289,0,0,0.1329,0.1326,0.1352,0.1352,0.135,0.1339,0.1346,0.1339,0.1335,0.136,0.1335,0.1348,0.1371,0.1372,0.1375,0.1438,0.1419,0.1442,0.1481,0.1501,0.1508,0.1515,0.1537,0.1545,0.1447,0.1447,0.1447,0,0.1368,0.139,0.1369,0.1388,0.1393,0.1361,0.1387,0.1388,0.1391,0.1395,0.1377,0.1403,0.1401,0.1434,0.1449,0.1454,0.146,0.1443,0.1509,0.1515,0.1521,0.1542,0.155,0.145,0.145,0.1449,0.1449,0,0.1438,0.1454,0.1475,0.1477,0.1483,0.1507,0.1489,0.1498,0.1483,0.1474,0.15,0.1496,0.1505,0.1512,0.1498,0.1543,0.1533,0.1513,0.1481,0.1534,0.1553,0.1561,0.1454,0.1453,0.1452,0.1451,0,0,0.1535,0.1523,0.1531,0.1531,0.1526,0.1538,0.1559,0.1567,0.1575,0.1577,0.1595,0.1613,0.1593,0.1597,0.1583,0.16,0.1649,0.1577,0.1577,0.1591,0.1698,0.1714,0.1723,0.1636,0.1637,0.1638,0.1698,0,0.1598,0.1633,0.1613,0.1651,0.1665,0.1634,0.1652,0.1651,0.1643,0.1654,0.1645,0.1658,0.1631,0.1633,0.1648,0.164,0.1671,0.1635,0.1652,0.1653,0.1653,0.1733,0.1751,0.1807,0.1705,0.1706,0.1707,0,0.1676,0.1679,0.1718,0.1709,0.1714,0.1731,0.1735,0.1746,0.1744,0.1737,0.174,0.1721,0.1741,0.1709,0.1737,0.1713,0.1719,0.1716,0.1717,0.1719,0.1684,0.1737,0.1824,0.1833,0.1719,0.1718,0.1717,0,0.1742,0.1757,0.1782,0.1783,0.1773,0.1785,0.1782,0.1778,0.1783,0.1787,0.179,0.1797,0.1801,0.1807,0.179,0.1768,0.182,0.1787,0.1814,0.1815,0.1827,0.1827,0.1917,0.183,0.183,0.183,0.183,0,0.1814,0.1839,0.1812,0.1827,0.1854,0.1831,0.1858,0.1851,0.1847,0.1861,0.1835,0.1848,0.1825,0.1836,0.1823,0.1848,0.185,0.1845,0.1841,0.1847,0.1848,0.1851,0.1847,0.1832,0.1832,0.1831,0.1831,0,0.1894,0.1877,0.1901,0.1889,0.1886,0.1906,0.1896,0.191,0.1898,0.1916,0.1919,0.1902,0.1913,0.1897,0.1907,0.1898,0.1932,0.1922,0.1932,0.1929,0.1958,0.1956,0.2054,0.2065,0.1971,0.1972,0.1973,0,0.1942,0.196,0.1948,0.1955,0.1952,0.1963,0.1968,0.1945,0.1951,0.1949,0.1963,0.1972,0.1978,0.1998,0.1987,0.1994,0.1985,0.2018,0.1986,0.1991,0.1985,0.1984,0.1986,0.2025,0.2027,0.2028,0.2028,0,0.2027,0.2017,0.2024,0.2028,0.2033,0.2036,0.2036,0.2043,0.2019,0.2027,0.2038,0.2042,0.2051,0.2061,0.2065,0.2061,0.2041,0.2038,0.2045,0.2052,0.2057,0.2055,0.1951,0.2036,0.2036,0.2035,0.2035,0.2034,0.2092,0.2106,0.21,0.2108,0.2106,0.2106,0.2118,0.2107,0.2115,0.212,0.2106,0.212,0.2116,0.2119,0.2118,0.2129,0.2114,0.2124,0.2127,0.2129,0.2134,0.2055,0.2129,0.2129,0.2129,0.2129,0.2128,0,0.2177,0.217,0.2178,0.2178,0.2185,0.2163,0.2161,0.2169,0.2181,0.2178,0.2184,0.2195,0.2204,0.2192,0.2199,0.2209,0.22,0.2212,0.2211,0.2211,0.2147,0.214,0.2219,0.2219,0.2219,0.2219,0.2219,0.2219,0.2221,0.2244,0.2232,0.2253,0.2246,0.2259,0.226,0.226,0.2257,0.2271,0.2277,0.2269,0.2263,0.2268,0.2275,0.2271,0.2275,0.229,0.2283,0.2224,0.2215,0.2207,0.22,0.2291,0.2291,0.2346,0.2347,0.2347]},{"header":{"parameterUnit":"m.s-1","parameterCategory":1,"la1":30.2991,"la2":30.254,"lo1":-89.0895,"lo2":-89.0444,"dy":0.0017,"dx":0.0017,"nx":28,"ny":28,"refTime":"2023-08-19T03:00:00:Z","depth":0,"parameterNumber":3,"parameterNumberName":"V-component_of_WINDS"},"data":[0,0,0,0,0,0,0,0,0,0,0,0,0,0,0,0,0,0,0,0,0,0,0,0,0,0,0,0,0,0,0,0,0,0,0,0,0,0,0,0,0,0,0,0,0,0,0,0,0,0,0,0,0,0,0,0,0,0,1.9565,1.9565,0,1.9557,1.9557,1.9557,1.9508,1.9507,1.9506,1.9504,1.9496,1.9497,1.9498,0,0,0,0,0,0,0,0,0,0,0,0,0,1.9537,1.9538,1.9565,1.9565,1.9565,1.9557,1.9557,1.9557,1.9508,1.9507,1.9505,1.9504,1.9496,1.9497,1.9498,0,0,0,0,0,0,0,0,0,0,0,0,0,1.9541,1.9538,1.9565,1.954,1.9537,1.9557,1.9557,1.9557,1.9508,1.9507,1.9505,1.9503,1.9495,1.9497,1.9498,1.9542,0,0,1.9502,1.9503,0,0,0,0,0,0,0,0,1.9541,1.9543,1.9544,1.9541,1.9539,1.9532,1.9544,1.9552,1.9509,1.9519,1.9504,1.9502,1.9509,1.9509,1.9512,1.9542,1.9541,1.9502,1.9503,1.9503,1.9504,0,0,0,0,0,0,0,1.9541,1.9543,1.9562,1.9544,1.9541,1.9528,1.9527,1.9546,1.9524,1.9518,1.9515,1.9514,1.9508,1.9511,1.9511,1.9541,1.9502,1.9503,1.9504,1.9505,1.9606,1.9608,0,0,0,0,0,0,1.9544,1.9543,1.9562,1.9562,1.9536,1.953,1.9529,1.9536,1.9524,1.9521,1.9516,1.9512,1.9509,1.951,1.9511,1.9561,1.9503,1.9505,1.9506,1.9604,1.9607,1.9609,0,0,0,0,0,0,1.9544,1.9547,1.9563,1.9551,1.9552,1.9533,1.9541,1.9537,1.954,1.9522,1.9518,1.9523,1.9508,1.9509,1.9535,1.956,1.9505,1.9507,1.9602,1.9605,1.9608,1.9662,0,0,0,0,0,0,1.9543,1.9547,1.9563,1.9552,1.9553,1.9587,1.9543,1.9538,1.9542,1.9537,1.9528,1.9525,1.9507,1.9533,1.9536,1.9561,1.9508,1.96,1.9604,1.9607,1.9658,1.9667,1.9674,0,0,0,0,0,1.9543,1.9579,1.9564,1.9567,1.9574,1.9588,1.9589,1.9568,1.9544,1.9561,1.955,1.9525,1.9557,1.9536,1.9539,1.9565,1.9598,1.9602,1.9607,1.9654,1.9665,1.9674,0,0,0,0,0,0,1.9593,1.9577,1.9561,1.9595,1.9593,1.958,1.96,1.9579,1.9584,1.9579,1.9553,1.9551,1.9581,1.9575,1.9552,1.9607,1.9573,1.9578,1.9609,1.9618,1.9626,1.9626,1.9509,0,0,0,0,0,1.9609,1.9622,1.9607,1.9638,1.9639,1.962,1.9625,1.9609,1.9607,1.9606,1.9596,1.9595,1.9604,1.9611,1.9619,1.9658,1.9654,1.9677,1.9685,1.9691,1.9696,1.9715,1.9724,1.9623,1.9623,1.9623,0,0,1.964,1.9633,1.9643,1.9648,1.9645,1.966,1.9619,1.9636,1.9647,1.9608,1.9631,1.9625,1.9621,1.9653,1.9667,1.965,1.9723,1.9697,1.9702,1.9703,1.972,1.973,1.9739,1.9626,1.9625,1.9625,0,0,1.9704,1.9701,1.9726,1.9724,1.972,1.9707,1.9714,1.9704,1.9698,1.9721,1.9692,1.9704,1.9722,1.972,1.9722,1.9787,1.9764,1.979,1.9831,1.985,1.9858,1.9865,1.9887,1.9896,1.9795,1.9795,1.9795,0,1.9743,1.9764,1.9741,1.976,1.9763,1.973,1.9755,1.9754,1.9753,1.9756,1.9737,1.9758,1.9754,1.9785,1.98,1.9803,1.9809,1.979,1.9859,1.9865,1.9872,1.9892,1.9901,1.9798,1.9798,1.9797,1.9797,0,1.9812,1.9827,1.9848,1.9848,1.9854,1.9876,1.9856,1.9865,1.9849,1.9838,1.9862,1.9855,1.9861,1.9868,1.9852,1.9897,1.9886,1.9864,1.9829,1.9885,1.9904,1.9912,1.9802,1.9801,1.98,1.98,0,0,1.9906,1.9894,1.9902,1.9902,1.9896,1.9907,1.9928,1.9933,1.9941,1.9942,1.9958,1.9974,1.9953,1.9955,1.9939,1.9956,2.0007,1.9931,1.9931,1.9945,2.0055,2.0071,2.0081,1.9992,1.9994,1.9995,2.0055,0,1.9967,2.0001,1.9982,2.0019,2.0032,2.0001,2.0019,2.0017,2.0008,2.0018,2.0008,2.0019,1.9991,1.9992,2.0008,1.9997,2.0028,1.9993,2.0006,2.0007,2.0007,2.0091,2.0108,2.0164,2.0062,2.0064,2.0064,0,2.0042,2.0046,2.0085,2.0076,2.0081,2.0097,2.0101,2.0111,2.0109,2.0101,2.0104,2.0083,2.0103,2.007,2.0097,2.0073,2.0078,2.0074,2.0075,2.0075,2.0038,2.0091,2.0182,2.019,2.0076,2.0075,2.0074,0,2.0105,2.0121,2.0146,2.0147,2.0138,2.015,2.0147,2.0142,2.0147,2.0151,2.0154,2.016,2.0163,2.0168,2.015,2.0128,2.0179,2.0145,2.0172,2.0173,2.0183,2.0183,2.0275,2.0188,2.0188,2.0188,2.0188,0,2.0174,2.0199,2.0174,2.0189,2.0216,2.0194,2.0221,2.0214,2.0211,2.0224,2.0198,2.0211,2.0187,2.0198,2.0184,2.0208,2.021,2.0204,2.0199,2.0205,2.0206,2.0207,2.0202,2.019,2.019,2.0189,2.0189,0,2.0249,2.0234,2.0259,2.0248,2.0247,2.0266,2.0258,2.0271,2.0261,2.0278,2.0281,2.0264,2.0276,2.0259,2.0268,2.0259,2.0291,2.0281,2.0292,2.0289,2.0317,2.0314,2.0412,2.0423,2.0331,2.0332,2.0332,0,2.0293,2.0311,2.0303,2.031,2.0309,2.0321,2.0326,2.0305,2.0311,2.031,2.0324,2.0333,2.0339,2.0359,2.0347,2.0355,2.0344,2.0378,2.0345,2.035,2.0343,2.0342,2.0344,2.0384,2.0386,2.0387,2.0387,0,2.0373,2.0364,2.0373,2.0379,2.0386,2.039,2.0391,2.0399,2.0377,2.0386,2.0397,2.0402,2.0412,2.0421,2.0425,2.0422,2.0401,2.0398,2.0405,2.041,2.0415,2.0412,2.0309,2.0396,2.0395,2.0394,2.0394,2.0393,2.0432,2.0447,2.0444,2.0454,2.0454,2.0456,2.0468,2.046,2.0469,2.0475,2.0463,2.0477,2.0475,2.0478,2.0477,2.0488,2.0473,2.0483,2.0485,2.0488,2.0492,2.0415,2.0489,2.0489,2.0489,2.0489,2.0488,0,2.051,2.0506,2.0516,2.052,2.0528,2.0509,2.051,2.0518,2.0531,2.0531,2.0537,2.055,2.056,2.055,2.0557,2.0568,2.0558,2.057,2.0568,2.0568,2.0505,2.0498,2.0577,2.0577,2.0577,2.0577,2.0577,2.0577,2.0551,2.0574,2.0566,2.0589,2.0586,2.06,2.0602,2.0604,2.0604,2.062,2.0627,2.0621,2.0617,2.0623,2.0631,2.0628,2.0631,2.0646,2.064,2.0581,2.0572,2.0564,2.0557,2.0648,2.0648,2.0701,2.0702,2.0702]}]]